Miscellaneous Local Product
Issued by NWS Hastings, NE

Home | Current Version | Previous Version | Text Only | Print | Product List | Glossary Off
Versions: 1 2 3 4 5 6 7 8 9 10 11 12 13 14 15 16 17 18 19 20 21 22 23 24 25 26 27 28 29 30 31 32 33 34 35 36 37 38 39 40 41 42 43 44 45 46 47 48 49 50

000
AXUS43 KGID 271802
MISGRI

GID CWA HOURLY WEATHER ROUNDUP
NATIONAL WEATHER SERVICE HASTINGS NE
100 PM CDT WED MAY 27 2015

NOTE: "FAIR" INDICATES FEW OR NO CLOUDS BELOW 12,000 FEET WITH NO
SIGNIFICANT WEATHER AND/OR OBSTRUCTIONS TO VISIBILITY.

...SOUTH CENTRAL NEBRASKA...

CITY           SKY/WX    TMP DP  RH WIND       PRES   REMARKS
GRAND ISLAND   FAIR      79  43  27 S10       30.09F
HASTINGS       FAIR      76  49  38 SE7G16    30.10S
KEARNEY        FAIR      77  45  31 SE12G17   30.09F
ORD            MOSUNNY   76  46  34 S9        30.07F
YORK           FAIR      77  45  31 S8        30.09S
AURORA         FAIR      78  45  31 S6        30.09S
LEXINGTON      PTSUNNY   75  51  42 SE10G17   30.09F HAZE
HOLDREGE       FAIR      76  46  34 S9        30.09F
HEBRON         FAIR      78  40  25 E5        30.09S

...NEBRASKA PANHANDLE...

CITY           SKY/WX    TMP DP  RH WIND       PRES   REMARKS
CHADRON        MOSUNNY   71  54  54 S9        29.99F
ALLIANCE       MOSUNNY   69  55  60 S16       30.03F
SCOTTSBLUFF    MOSUNNY   69  54  58 VRB5      30.03F
SIDNEY         MOSUNNY   68  55  63 SE14      30.06F

...WESTERN AND NORTH CENTRAL NEBRASKA...

CITY           SKY/WX    TMP DP  RH WIND       PRES   REMARKS
VALENTINE      CLOUDY    70  51  51 S16G23    30.06F
AINSWORTH      CLOUDY    72  51  47 S9        30.08S
ONEILL         MOSUNNY   78  48  34 S8        30.07F
BROKEN BOW     PTSUNNY   73  47  39 S16       30.09S
IMPERIAL       PTSUNNY   70  57  63 S18G26    30.06F
NORTH PLATTE   PTSUNNY   73  53  49 SE10      30.07F
MCCOOK         LGT RAIN  67  57  70 SE6       30.08F

...EASTERN NEBRASKA...

CITY           SKY/WX    TMP DP  RH WIND       PRES   REMARKS
NORFOLK        FAIR      80  52  37 CALM      30.06S
SO SIOUX CITY  FAIR      80  54  40 CALM      30.04F
TEKAMAH        FAIR      82  52  35 VRB3      30.05S
COLUMBUS       FAIR      79  45  29 SW6       30.09S
ALBION         FAIR      77  46  34 S8        30.08S
OMAHA EPPLEY   FAIR      80  53  39 S7        30.06S
OFFUTT AFB     FAIR      79  59  49 VRB6      30.06S
MILLARD        FAIR      79  55  44 SW5       30.06S
LINCOLN        FAIR      82  48  30 CALM      30.09R
NEBRASKA CITY  FAIR      78  47  33 NW3       30.09S
BEATRICE       FAIR      77  50  38 SE5       30.10S
FALLS CITY     FAIR      79  49  34 CALM      30.09S

...NORTHERN KANSAS...

CITY           SKY/WX    TMP DP  RH WIND       PRES   REMARKS
GOODLAND       MOSUNNY   74  59  59 S18       30.07F
HILL CITY      PTSUNNY   71  58  63 VRB6      30.11R
NORTON         DRIZZLE   68  54  60 SE6       30.09S
PHILLIPSBURG   SUNNY     81  54  39 E9        30.09S HAZE
SMITH CENTER   SUNNY     75  54  46 E12       30.09F
HAYS           PTSUNNY   73  57  56 SE12      30.10R
RUSSELL        PTSUNNY   76  59  55 SE12      30.08S
CONCORDIA      FAIR      78  50  37 E9        30.10S
SALINA         FAIR      79  55  43 SE9       30.10S
TOPEKA         FAIR      79  53  40 VRB7      30.10S



USA.gov is the U.S. government's official web portal to all federal, state and local government web resources and services.